Track DUMMY SAT 2/BREEZE-M now! DUMMY SAT 2/BREEZE-M is classified as:
1 40355U 14085A 23265.61384434 -.00000130 00000-0 00000+0 0 9990 2 40355 7.7370 70.1500 0357152 330.6805 27.4861 0.94060837 30349